Wetterdaten: Mittwoch, 28.11.2018
Datum Zeit Temp. I. Temp. A. Boden 5 cm Feuchte A. Sonne Luftdruck Regen Wind Sonnenschein Zeit Regen
28.11.2018 00:00 22,5 C -1,3 C 1,2 C 90 % 2 % 1025 hPa 0,0 l/m 0,0 km/h (0 Bft) 0 min 0 min
28.11.2018 00:03 22,5 C -1,4 C 1,2 C 90 % 2 % 1025 hPa 0,0 l/m 0,0 km/h (0 Bft) 0 min 0 min
28.11.2018 00:06 22,5 C -1,4 C 1,1 C 90 % 2 % 1025 hPa 0,0 l/m 0,0 km/h (0 Bft) 0 min 0 min
28.11.2018 00:09 22,5 C -1,4 C 1,1 C 90 % 2 % 1025 hPa 0,0 l/m 0,0 km/h (0 Bft) 0 min 0 min
28.11.2018 00:12 22,5 C -1,4 C 0,8 C 90 % 2 % 1025 hPa 0,0 l/m 0,0 km/h (0 Bft) 0 min 0 min
28.11.2018 00:15 22,5 C -1,5 C 0,9 C 90 % 2 % 1025 hPa 0,0 l/m 0,0 km/h (0 Bft) 0 min 0 min
28.11.2018 00:18 22,5 C -1,5 C 0,9 C 90 % 2 % 1025 hPa 0,0 l/m 0,0 km/h (0 Bft) 0 min 0 min
28.11.2018 00:21 22,5 C -1,6 C 0,7 C 90 % 2 % 1025 hPa 0,0 l/m 0,0 km/h (0 Bft) 0 min 0 min
28.11.2018 00:24 22,4 C -1,6 C 0,6 C 90 % 2 % 1025 hPa 0,0 l/m 0,0 km/h (0 Bft) 0 min 0 min
28.11.2018 00:27 22,4 C -1,6 C 0,5 C 90 % 2 % 1025 hPa 0,0 l/m 0,0 km/h (0 Bft) 0 min 0 min
28.11.2018 00:30 22,5 C -1,6 C 1,0 C 90 % 2 % 1025 hPa 0,0 l/m 0,0 km/h (0 Bft) 0 min 0 min
28.11.2018 00:33 22,5 C -1,6 C 1,0 C 90 % 2 % 1025 hPa 0,0 l/m 0,0 km/h (0 Bft) 0 min 0 min
28.11.2018 00:36 22,5 C -1,6 C 0,6 C 90 % 2 % 1025 hPa 0,0 l/m 0,0 km/h (0 Bft) 0 min 0 min
28.11.2018 00:39 22,4 C -1,7 C 0,7 C 90 % 2 % 1025 hPa 0,0 l/m 0,0 km/h (0 Bft) 0 min 0 min
28.11.2018 00:42 22,4 C -1,7 C 0,5 C 90 % 2 % 1025 hPa 0,0 l/m 0,0 km/h (0 Bft) 0 min 0 min
28.11.2018 00:45 22,4 C -1,8 C 0,2 C 90 % 2 % 1025 hPa 0,0 l/m 0,0 km/h (0 Bft) 0 min 0 min
28.11.2018 00:53 22,4 C -1,7 C 0,8 C 90 % 2 % 1025 hPa 0,0 l/m 0,0 km/h (0 Bft) 0 min 0 min
28.11.2018 00:56 22,4 C -1,7 C 0,7 C 90 % 2 % 1025 hPa 0,0 l/m 0,0 km/h (0 Bft) 0 min 0 min
28.11.2018 00:59 22,4 C -1,8 C 0,7 C 90 % 2 % 1025 hPa 0,0 l/m 0,0 km/h (0 Bft) 0 min 0 min
28.11.2018 01:02 22,4 C -1,8 C 0,7 C 90 % 2 % 1025 hPa 0,0 l/m 0,0 km/h (0 Bft) 0 min 0 min
28.11.2018 01:05 22,4 C -1,8 C 0,3 C 90 % 2 % 1025 hPa 0,0 l/m 10,3 km/h (2 Bft) 0 min 0 min
28.11.2018 01:08 22,4 C -1,6 C 0,4 C 90 % 2 % 1025 hPa 0,0 l/m 9,8 km/h (2 Bft) 0 min 0 min
28.11.2018 01:11 22,4 C -1,6 C 0,5 C 90 % 2 % 1025 hPa 0,0 l/m 9,8 km/h (2 Bft) 0 min 0 min
28.11.2018 01:14 22,4 C -1,6 C 0,4 C 90 % 2 % 1025 hPa 0,0 l/m 5,5 km/h (1 Bft) 0 min 0 min
28.11.2018 01:17 22,4 C -1,5 C 0,4 C 90 % 2 % 1025 hPa 0,0 l/m 4,4 km/h (1 Bft) 0 min 0 min
28.11.2018 01:21 22,4 C -1,6 C 0,4 C 90 % 2 % 1025 hPa 0,0 l/m 2,9 km/h (1 Bft) 0 min 0 min
28.11.2018 01:24 22,4 C -1,6 C 0,4 C 90 % 2 % 1025 hPa 0,0 l/m 1,9 km/h (1 Bft) 0 min 0 min
28.11.2018 01:27 22,4 C -1,6 C 0,3 C 90 % 2 % 1025 hPa 0,0 l/m 0,0 km/h (0 Bft) 0 min 0 min
28.11.2018 01:30 22,4 C -1,5 C 0,4 C 90 % 2 % 1025 hPa 0,0 l/m 1,0 km/h (0 Bft) 0 min 0 min
28.11.2018 01:33 22,4 C -1,6 C 0,4 C 90 % 2 % 1025 hPa 0,0 l/m 0,3 km/h (0 Bft) 0 min 0 min
28.11.2018 01:36 22,4 C -1,6 C 0,3 C 90 % 2 % 1025 hPa 0,0 l/m 0,6 km/h (0 Bft) 0 min 0 min
28.11.2018 01:39 22,4 C -1,6 C 0,5 C 90 % 2 % 1025 hPa 0,0 l/m 0,0 km/h (0 Bft) 0 min 0 min
28.11.2018 01:42 22,4 C -1,6 C 0,1 C 90 % 2 % 1025 hPa 0,0 l/m 0,0 km/h (0 Bft) 0 min 0 min
28.11.2018 01:45 22,4 C -1,7 C 0,1 C 90 % 2 % 1025 hPa 0,0 l/m 0,0 km/h (0 Bft) 0 min 0 min
28.11.2018 01:48 22,4 C -1,8 C 0,2 C 90 % 2 % 1025 hPa 0,0 l/m 0,0 km/h (0 Bft) 0 min 0 min
28.11.2018 01:51 22,4 C -1,8 C 0,5 C 90 % 2 % 1025 hPa 0,0 l/m 0,0 km/h (0 Bft) 0 min 0 min
28.11.2018 01:54 22,4 C -1,8 C 0,5 C 90 % 2 % 1025 hPa 0,0 l/m 0,0 km/h (0 Bft) 0 min 0 min
28.11.2018 01:57 22,4 C -1,8 C 0,2 C 90 % 2 % 1025 hPa 0,0 l/m 0,0 km/h (0 Bft) 0 min 0 min
28.11.2018 02:00 22,4 C -1,8 C 0,1 C 90 % 2 % 1025 hPa 0,0 l/m 0,0 km/h (0 Bft) 0 min 0 min
28.11.2018 02:03 22,4 C -1,8 C 0,1 C 90 % 2 % 1025 hPa 0,0 l/m 0,0 km/h (0 Bft) 0 min 0 min
28.11.2018 02:06 22,4 C -1,8 C 0,0 C 90 % 2 % 1025 hPa 0,0 l/m 0,0 km/h (0 Bft) 0 min 0 min
28.11.2018 02:09 22,4 C -1,8 C 0,0 C 90 % 2 % 1025 hPa 0,0 l/m 0,0 km/h (0 Bft) 0 min 0 min
28.11.2018 02:12 22,4 C -1,9 C 0,0 C 90 % 2 % 1025 hPa 0,0 l/m 0,0 km/h (0 Bft) 0 min 0 min
28.11.2018 02:15 22,4 C -1,9 C 0,4 C 90 % 2 % 1025 hPa 0,0 l/m 0,0 km/h (0 Bft) 0 min 0 min
28.11.2018 02:18 22,4 C -2,0 C 0,5 C 90 % 2 % 1025 hPa 0,0 l/m 0,4 km/h (0 Bft) 0 min 0 min
28.11.2018 02:21 22,4 C -2,0 C 0,5 C 90 % 2 % 1025 hPa 0,0 l/m 0,0 km/h (0 Bft) 0 min 0 min
28.11.2018 02:24 22,4 C -2,0 C 0,3 C 90 % 2 % 1025 hPa 0,0 l/m 0,0 km/h (0 Bft) 0 min 0 min
28.11.2018 02:27 22,4 C -2,0 C 0,4 C 90 % 2 % 1025 hPa 0,0 l/m 0,0 km/h (0 Bft) 0 min 0 min
28.11.2018 02:30 22,4 C -2,0 C 0,3 C 90 % 2 % 1025 hPa 0,0 l/m 0,0 km/h (0 Bft) 0 min 0 min
28.11.2018 02:33 22,4 C -2,0 C 0,1 C 90 % 2 % 1025 hPa 0,0 l/m 0,0 km/h (0 Bft) 0 min 0 min
28.11.2018 02:36 22,4 C -2,0 C 0,2 C 90 % 2 % 1025 hPa 0,0 l/m 0,0 km/h (0 Bft) 0 min 0 min
28.11.2018 02:39 22,4 C -2,0 C 0,4 C 90 % 2 % 1026 hPa 0,0 l/m 0,0 km/h (0 Bft) 0 min 0 min
28.11.2018 02:42 22,4 C -2,1 C 0,4 C 90 % 2 % 1026 hPa 0,0 l/m 0,0 km/h (0 Bft) 0 min 0 min
28.11.2018 02:45 22,4 C -2,1 C -0,1 C 90 % 2 % 1026 hPa 0,0 l/m 0,0 km/h (0 Bft) 0 min 0 min
28.11.2018 02:48 22,4 C -2,2 C -0,3 C 90 % 2 % 1026 hPa 0,0 l/m 0,0 km/h (0 Bft) 0 min 0 min
28.11.2018 02:51 22,4 C -2,2 C -0,2 C 90 % 2 % 1026 hPa 0,0 l/m 0,0 km/h (0 Bft) 0 min 0 min
28.11.2018 02:54 22,4 C -2,2 C 0,2 C 90 % 2 % 1026 hPa 0,0 l/m 0,0 km/h (0 Bft) 0 min 0 min
28.11.2018 02:57 22,4 C -2,2 C 0,0 C 90 % 2 % 1026 hPa 0,0 l/m 0,0 km/h (0 Bft) 0 min 0 min
28.11.2018 03:00 22,4 C -2,2 C -0,2 C 90 % 2 % 1026 hPa 0,0 l/m 0,0 km/h (0 Bft) 0 min 0 min
28.11.2018 03:03 22,4 C -2,3 C -0,2 C 90 % 2 % 1026 hPa 0,0 l/m 0,0 km/h (0 Bft) 0 min 0 min
28.11.2018 03:06 22,4 C -2,3 C 0,1 C 90 % 2 % 1026 hPa 0,0 l/m 0,0 km/h (0 Bft) 0 min 0 min
28.11.2018 03:09 22,4 C -2,3 C -0,1 C 90 % 2 % 1026 hPa 0,0 l/m 0,0 km/h (0 Bft) 0 min 0 min
28.11.2018 03:12 22,4 C -2,3 C 0,1 C 90 % 2 % 1026 hPa 0,0 l/m 0,0 km/h (0 Bft) 0 min 0 min
28.11.2018 03:15 22,4 C -2,3 C 0,2 C 90 % 2 % 1026 hPa 0,0 l/m 0,0 km/h (0 Bft) 0 min 0 min
28.11.2018 03:18 22,4 C -2,3 C 0,2 C 90 % 2 % 1026 hPa 0,0 l/m 0,0 km/h (0 Bft) 0 min 0 min
28.11.2018 03:21 22,4 C -2,3 C 0,1 C 90 % 2 % 1026 hPa 0,0 l/m 0,0 km/h (0 Bft) 0 min 0 min
28.11.2018 03:24 22,4 C -2,3 C -0,1 C 90 % 2 % 1026 hPa 0,0 l/m 0,0 km/h (0 Bft) 0 min 0 min
28.11.2018 03:27 22,4 C -2,3 C -0,1 C 90 % 2 % 1026 hPa 0,0 l/m 0,0 km/h (0 Bft) 0 min 0 min
28.11.2018 03:30 22,4 C -2,2 C -0,1 C 90 % 2 % 1026 hPa 0,0 l/m 0,0 km/h (0 Bft) 0 min 0 min
28.11.2018 03:33 22,4 C -2,1 C 0,1 C 90 % 2 % 1026 hPa 0,0 l/m 0,0 km/h (0 Bft) 0 min 0 min
28.11.2018 03:36 22,4 C -2,0 C 0,1 C 90 % 2 % 1026 hPa 0,0 l/m 0,1 km/h (0 Bft) 0 min 0 min
28.11.2018 03:39 22,4 C -2,0 C 0,0 C 90 % 2 % 1026 hPa 0,0 l/m 0,0 km/h (0 Bft) 0 min 0 min
28.11.2018 03:42 22,4 C -1,9 C 0,0 C 90 % 2 % 1026 hPa 0,0 l/m 0,0 km/h (0 Bft) 0 min 0 min
28.11.2018 03:45 22,4 C -1,8 C 0,1 C 90 % 2 % 1026 hPa 0,0 l/m 0,0 km/h (0 Bft) 0 min 0 min
28.11.2018 03:48 22,4 C -1,7 C 0,0 C 90 % 2 % 1026 hPa 0,0 l/m 0,0 km/h (0 Bft) 0 min 0 min
28.11.2018 03:51 22,4 C -1,7 C 0,0 C 90 % 2 % 1026 hPa 0,0 l/m 0,1 km/h (0 Bft) 0 min 0 min
28.11.2018 03:54 22,4 C -1,6 C -0,1 C 90 % 2 % 1026 hPa 0,0 l/m 2,5 km/h (1 Bft) 0 min 0 min
28.11.2018 03:57 22,4 C -1,6 C -0,2 C 90 % 2 % 1026 hPa 0,0 l/m 0,0 km/h (0 Bft) 0 min 0 min
28.11.2018 04:00 22,4 C -1,5 C -0,2 C 90 % 2 % 1026 hPa 0,0 l/m 1,0 km/h (0 Bft) 0 min 0 min
28.11.2018 04:03 22,4 C -1,5 C 0,2 C 90 % 2 % 1026 hPa 0,0 l/m 1,0 km/h (0 Bft) 0 min 0 min
28.11.2018 04:06 22,3 C -1,5 C 0,3 C 90 % 2 % 1026 hPa 0,0 l/m 0,2 km/h (0 Bft) 0 min 0 min
28.11.2018 04:09 22,3 C -1,5 C 0,0 C 90 % 2 % 1026 hPa 0,0 l/m 0,2 km/h (0 Bft) 0 min 0 min
28.11.2018 04:12 22,3 C -1,4 C 0,3 C 90 % 2 % 1026 hPa 0,0 l/m 0,0 km/h (0 Bft) 0 min 0 min
28.11.2018 04:15 22,4 C -1,4 C 0,3 C 90 % 2 % 1026 hPa 0,0 l/m 0,0 km/h (0 Bft) 0 min 0 min
28.11.2018 04:18 22,3 C -1,4 C 0,3 C 90 % 2 % 1026 hPa 0,0 l/m 0,0 km/h (0 Bft) 0 min 0 min
28.11.2018 04:21 22,3 C -1,4 C 0,2 C 90 % 3 % 1026 hPa 0,0 l/m 0,0 km/h (0 Bft) 0 min 0 min
28.11.2018 04:24 22,3 C -1,3 C 0,2 C 90 % 3 % 1026 hPa 0,0 l/m 0,1 km/h (0 Bft) 0 min 0 min
28.11.2018 04:27 22,3 C -1,3 C 0,2 C 90 % 3 % 1026 hPa 0,0 l/m 0,1 km/h (0 Bft) 0 min 0 min
28.11.2018 04:30 22,3 C -1,3 C 0,1 C 90 % 3 % 1026 hPa 0,0 l/m 0,6 km/h (0 Bft) 0 min 0 min
28.11.2018 04:33 22,3 C -1,3 C 0,1 C 90 % 3 % 1026 hPa 0,0 l/m 0,5 km/h (0 Bft) 0 min 0 min
28.11.2018 04:36 22,3 C -1,3 C 0,3 C 90 % 3 % 1026 hPa 0,0 l/m 0,5 km/h (0 Bft) 0 min 0 min
28.11.2018 04:39 22,3 C -1,3 C 0,3 C 90 % 3 % 1026 hPa 0,0 l/m 0,1 km/h (0 Bft) 0 min 0 min
28.11.2018 04:42 22,3 C -1,2 C 0,3 C 90 % 3 % 1026 hPa 0,0 l/m 0,2 km/h (0 Bft) 0 min 0 min
28.11.2018 04:45 22,3 C -1,2 C 0,3 C 90 % 3 % 1026 hPa 0,0 l/m 1,2 km/h (1 Bft) 0 min 0 min
28.11.2018 04:48 22,3 C -1,1 C 0,4 C 90 % 3 % 1026 hPa 0,0 l/m 0,1 km/h (0 Bft) 0 min 0 min
28.11.2018 04:51 22,3 C -1,1 C 0,4 C 90 % 3 % 1026 hPa 0,0 l/m 0,1 km/h (0 Bft) 0 min 0 min
28.11.2018 04:54 22,3 C -1,1 C 0,4 C 90 % 3 % 1026 hPa 0,0 l/m 0,6 km/h (0 Bft) 0 min 0 min
28.11.2018 04:57 22,3 C -1,1 C 0,4 C 90 % 3 % 1027 hPa 0,0 l/m 1,7 km/h (1 Bft) 0 min 0 min
28.11.2018 05:00 22,3 C -1,1 C 0,4 C 90 % 3 % 1027 hPa 0,0 l/m 4,6 km/h (1 Bft) 0 min 0 min
28.11.2018 05:03 22,3 C -1,1 C 0,4 C 90 % 3 % 1027 hPa 0,0 l/m 4,6 km/h (1 Bft) 0 min 0 min
28.11.2018 05:06 22,3 C -1,1 C -0,2 C 90 % 3 % 1027 hPa 0,0 l/m 3,9 km/h (1 Bft) 0 min 0 min
28.11.2018 05:09 22,3 C -1,2 C 0,0 C 90 % 3 % 1027 hPa 0,0 l/m 3,1 km/h (1 Bft) 0 min 0 min
28.11.2018 05:12 22,3 C -1,2 C 0,2 C 90 % 3 % 1027 hPa 0,0 l/m 0,4 km/h (0 Bft) 0 min 0 min
28.11.2018 05:15 22,3 C -1,2 C 0,2 C 90 % 3 % 1027 hPa 0,0 l/m 2,8 km/h (1 Bft) 0 min 0 min
28.11.2018 05:18 22,3 C -1,2 C 0,3 C 90 % 3 % 1027 hPa 0,0 l/m 3,8 km/h (1 Bft) 0 min 0 min
28.11.2018 05:21 22,3 C -1,2 C 0,4 C 90 % 3 % 1027 hPa 0,0 l/m 0,4 km/h (0 Bft) 0 min 0 min
28.11.2018 05:24 22,3 C -1,3 C 0,5 C 90 % 3 % 1027 hPa 0,0 l/m 0,4 km/h (0 Bft) 0 min 0 min
28.11.2018 05:27 22,3 C -1,3 C 0,5 C 90 % 3 % 1027 hPa 0,0 l/m 0,6 km/h (0 Bft) 0 min 0 min
28.11.2018 05:30 22,3 C -1,3 C 0,5 C 90 % 3 % 1027 hPa 0,0 l/m 0,6 km/h (0 Bft) 0 min 0 min
28.11.2018 05:33 22,3 C -1,3 C 0,5 C 90 % 3 % 1027 hPa 0,0 l/m 0,4 km/h (0 Bft) 0 min 0 min
28.11.2018 05:36 22,3 C -1,3 C 0,5 C 90 % 3 % 1027 hPa 0,0 l/m 0,3 km/h (0 Bft) 0 min 0 min
28.11.2018 05:39 22,3 C -1,3 C 0,5 C 90 % 3 % 1027 hPa 0,0 l/m 0,4 km/h (0 Bft) 0 min 0 min
28.11.2018 05:42 22,3 C -1,3 C 0,5 C 90 % 3 % 1027 hPa 0,0 l/m 0,0 km/h (0 Bft) 0 min 0 min
28.11.2018 05:45 22,3 C -1,3 C 0,5 C 90 % 3 % 1027 hPa 0,0 l/m 0,0 km/h (0 Bft) 0 min 0 min
28.11.2018 05:48 22,3 C -1,3 C 0,4 C 90 % 3 % 1027 hPa 0,0 l/m 2,7 km/h (1 Bft) 0 min 0 min
28.11.2018 05:51 22,3 C -1,3 C 0,5 C 90 % 3 % 1027 hPa 0,0 l/m 0,2 km/h (0 Bft) 0 min 0 min
28.11.2018 05:54 22,3 C -1,2 C 0,5 C 90 % 3 % 1027 hPa 0,0 l/m 0,5 km/h (0 Bft) 0 min 0 min
28.11.2018 05:57 22,3 C -1,3 C 0,5 C 90 % 3 % 1027 hPa 0,0 l/m 5,2 km/h (1 Bft) 0 min 0 min
28.11.2018 06:00 22,3 C -1,3 C 0,2 C 90 % 3 % 1027 hPa 0,0 l/m 1,1 km/h (1 Bft) 0 min 0 min
28.11.2018 06:03 22,3 C -1,3 C 0,4 C 90 % 3 % 1027 hPa 0,0 l/m 3,8 km/h (1 Bft) 0 min 0 min
28.11.2018 06:06 22,3 C -1,4 C 0,4 C 90 % 3 % 1027 hPa 0,0 l/m 5,7 km/h (1 Bft) 0 min 0 min
28.11.2018 06:09 22,3 C -1,4 C 0,4 C 90 % 3 % 1027 hPa 0,0 l/m 3,5 km/h (1 Bft) 0 min 0 min
28.11.2018 06:12 22,3 C -1,4 C 0,4 C 90 % 3 % 1027 hPa 0,0 l/m 5,7 km/h (1 Bft) 0 min 0 min
28.11.2018 06:15 22,3 C -1,4 C 0,4 C 90 % 3 % 1027 hPa 0,0 l/m 1,6 km/h (1 Bft) 0 min 0 min
28.11.2018 06:18 22,3 C -1,4 C 0,4 C 90 % 3 % 1027 hPa 0,0 l/m 1,6 km/h (1 Bft) 0 min 0 min
28.11.2018 06:21 22,3 C -1,4 C 0,0 C 90 % 3 % 1027 hPa 0,0 l/m 0,4 km/h (0 Bft) 0 min 0 min
28.11.2018 06:24 22,3 C -1,4 C 0,3 C 90 % 3 % 1027 hPa 0,0 l/m 3,1 km/h (1 Bft) 0 min 0 min
28.11.2018 06:27 22,3 C -1,4 C 0,3 C 90 % 3 % 1027 hPa 0,0 l/m 3,0 km/h (1 Bft) 0 min 0 min
28.11.2018 06:30 22,3 C -1,4 C 0,4 C 90 % 3 % 1027 hPa 0,0 l/m 4,6 km/h (1 Bft) 0 min 0 min
28.11.2018 06:33 22,3 C -1,3 C 0,5 C 90 % 3 % 1027 hPa 0,0 l/m 5,4 km/h (1 Bft) 0 min 0 min
28.11.2018 06:36 22,3 C -1,3 C 0,5 C 90 % 3 % 1027 hPa 0,0 l/m 3,8 km/h (1 Bft) 0 min 0 min
28.11.2018 06:39 22,3 C -1,3 C 0,4 C 90 % 3 % 1027 hPa 0,0 l/m 3,6 km/h (1 Bft) 0 min 0 min
28.11.2018 06:42 22,3 C -1,2 C 0,3 C 90 % 3 % 1027 hPa 0,0 l/m 0,6 km/h (0 Bft) 0 min 0 min
28.11.2018 06:45 22,3 C -1,3 C 0,5 C 90 % 3 % 1027 hPa 0,0 l/m 9,0 km/h (2 Bft) 0 min 0 min
28.11.2018 06:48 22,3 C -1,3 C 0,5 C 90 % 3 % 1027 hPa 0,0 l/m 4,1 km/h (1 Bft) 0 min 0 min
28.11.2018 06:51 22,2 C -1,3 C 0,5 C 90 % 3 % 1027 hPa 0,0 l/m 2,1 km/h (1 Bft) 0 min 0 min
28.11.2018 06:54 22,2 C -1,3 C 0,5 C 90 % 3 % 1027 hPa 0,0 l/m 1,8 km/h (1 Bft) 0 min 0 min
28.11.2018 06:57 22,2 C -1,3 C 0,4 C 90 % 3 % 1027 hPa 0,0 l/m 0,2 km/h (0 Bft) 0 min 0 min
28.11.2018 07:00 22,2 C -1,2 C 0,6 C 90 % 3 % 1027 hPa 0,0 l/m 0,2 km/h (0 Bft) 0 min 0 min
28.11.2018 07:03 22,2 C -1,2 C 0,6 C 90 % 3 % 1027 hPa 0,0 l/m 0,4 km/h (0 Bft) 0 min 0 min
28.11.2018 07:06 22,2 C -1,2 C 0,5 C 90 % 3 % 1027 hPa 0,0 l/m 0,7 km/h (0 Bft) 0 min 0 min
28.11.2018 07:09 22,2 C -1,2 C 0,5 C 90 % 3 % 1027 hPa 0,0 l/m 0,3 km/h (0 Bft) 0 min 0 min
28.11.2018 07:12 22,2 C -1,2 C 0,6 C 90 % 3 % 1027 hPa 0,0 l/m 0,1 km/h (0 Bft) 0 min 0 min
28.11.2018 07:15 22,2 C -1,2 C 0,4 C 90 % 3 % 1027 hPa 0,0 l/m 0,7 km/h (0 Bft) 0 min 0 min
28.11.2018 07:18 22,2 C -1,2 C 0,6 C 90 % 3 % 1027 hPa 0,0 l/m 0,2 km/h (0 Bft) 0 min 0 min
28.11.2018 07:21 22,3 C -1,2 C 0,6 C 90 % 3 % 1027 hPa 0,0 l/m 0,0 km/h (0 Bft) 0 min 0 min
28.11.2018 07:24 22,3 C -1,2 C 0,7 C 90 % 3 % 1027 hPa 0,0 l/m 0,0 km/h (0 Bft) 0 min 0 min
28.11.2018 07:27 22,3 C -1,2 C 0,6 C 90 % 3 % 1027 hPa 0,0 l/m 0,0 km/h (0 Bft) 0 min 0 min
28.11.2018 07:30 22,3 C -1,2 C 0,6 C 90 % 3 % 1027 hPa 0,0 l/m 0,0 km/h (0 Bft) 0 min 0 min
28.11.2018 07:33 22,3 C -1,2 C 0,7 C 90 % 3 % 1027 hPa 0,0 l/m 0,0 km/h (0 Bft) 0 min 0 min
28.11.2018 07:36 22,3 C -1,1 C 0,7 C 90 % 3 % 1027 hPa 0,0 l/m 0,0 km/h (0 Bft) 0 min 0 min
28.11.2018 07:39 22,3 C -1,2 C 0,7 C 90 % 3 % 1027 hPa 0,0 l/m 0,0 km/h (0 Bft) 0 min 0 min
28.11.2018 07:42 22,3 C -1,2 C 0,7 C 90 % 3 % 1028 hPa 0,0 l/m 0,0 km/h (0 Bft) 0 min 0 min
28.11.2018 07:45 22,3 C -1,1 C 0,7 C 90 % 4 % 1028 hPa 0,0 l/m 0,0 km/h (0 Bft) 3 min 0 min
28.11.2018 07:48 22,2 C -1,1 C 0,7 C 90 % 4 % 1028 hPa 0,0 l/m 0,0 km/h (0 Bft) 0 min 0 min
28.11.2018 07:51 22,2 C -1,1 C 0,4 C 90 % 4 % 1028 hPa 0,0 l/m 0,0 km/h (0 Bft) 0 min 0 min
28.11.2018 07:54 22,2 C -1,1 C 0,6 C 90 % 4 % 1028 hPa 0,0 l/m 0,0 km/h (0 Bft) 0 min 0 min
28.11.2018 07:57 22,2 C -1,0 C 0,4 C 90 % 4 % 1028 hPa 0,0 l/m 0,0 km/h (0 Bft) 0 min 0 min
28.11.2018 08:00 22,2 C -1,0 C 0,4 C 90 % 5 % 1028 hPa 0,0 l/m 0,0 km/h (0 Bft) 0 min 0 min
28.11.2018 08:03 22,2 C -1,0 C 0,4 C 90 % 5 % 1028 hPa 0,0 l/m 0,0 km/h (0 Bft) 0 min 0 min
28.11.2018 08:06 22,2 C -1,0 C 0,6 C 90 % 5 % 1028 hPa 0,0 l/m 0,1 km/h (0 Bft) 0 min 0 min
28.11.2018 08:09 22,2 C -1,0 C 0,7 C 90 % 6 % 1028 hPa 0,0 l/m 0,0 km/h (0 Bft) 0 min 0 min
28.11.2018 08:12 22,2 C -0,8 C 0,5 C 90 % 6 % 1028 hPa 0,0 l/m 0,5 km/h (0 Bft) 0 min 0 min
28.11.2018 08:15 22,2 C -0,8 C 0,6 C 90 % 6 % 1028 hPa 0,0 l/m 0,0 km/h (0 Bft) 0 min 0 min
28.11.2018 08:18 22,2 C -0,8 C 0,7 C 90 % 6 % 1028 hPa 0,0 l/m 0,3 km/h (0 Bft) 0 min 0 min
28.11.2018 08:21 22,2 C -0,8 C 0,7 C 90 % 7 % 1028 hPa 0,0 l/m 0,4 km/h (0 Bft) 0 min 0 min
28.11.2018 08:24 22,2 C -0,7 C 0,5 C 90 % 8 % 1028 hPa 0,0 l/m 0,0 km/h (0 Bft) 0 min 0 min
28.11.2018 08:27 22,1 C -0,6 C 0,5 C 90 % 8 % 1028 hPa 0,0 l/m 0,0 km/h (0 Bft) 0 min 0 min
28.11.2018 08:30 22,2 C -0,7 C 0,5 C 90 % 8 % 1028 hPa 0,0 l/m 0,1 km/h (0 Bft) 0 min 0 min
28.11.2018 08:33 22,2 C -0,6 C 0,5 C 90 % 8 % 1028 hPa 0,0 l/m 0,1 km/h (0 Bft) 0 min 0 min
28.11.2018 08:36 22,2 C -0,6 C 0,5 C 90 % 9 % 1028 hPa 0,0 l/m 1,9 km/h (1 Bft) 0 min 0 min
28.11.2018 08:39 22,2 C -0,6 C 0,6 C 90 % 9 % 1028 hPa 0,0 l/m 3,3 km/h (1 Bft) 0 min 0 min
28.11.2018 08:42 22,2 C -0,6 C 0,4 C 90 % 10 % 1028 hPa 0,0 l/m 1,8 km/h (1 Bft) 0 min 0 min
28.11.2018 08:45 22,0 C -0,5 C 0,6 C 90 % 10 % 1028 hPa 0,0 l/m 0,6 km/h (0 Bft) 0 min 0 min
28.11.2018 08:48 22,0 C -0,4 C 0,6 C 90 % 10 % 1028 hPa 0,0 l/m 2,2 km/h (1 Bft) 0 min 0 min
28.11.2018 08:51 21,9 C -0,4 C 0,5 C 90 % 10 % 1028 hPa 0,0 l/m 6,7 km/h (2 Bft) 0 min 0 min
28.11.2018 08:54 21,8 C -0,4 C 0,8 C 90 % 11 % 1028 hPa 0,0 l/m 8,3 km/h (2 Bft) 0 min 0 min
28.11.2018 08:57 21,7 C -0,3 C 0,7 C 90 % 11 % 1028 hPa 0,0 l/m 6,5 km/h (2 Bft) 0 min 0 min
28.11.2018 09:00 21,6 C -0,3 C 0,7 C 89 % 12 % 1028 hPa 0,0 l/m 10,1 km/h (2 Bft) 0 min 0 min
28.11.2018 09:03 21,6 C -0,2 C 0,8 C 89 % 13 % 1028 hPa 0,0 l/m 8,9 km/h (2 Bft) 0 min 0 min
28.11.2018 09:06 21,5 C -0,2 C 0,8 C 89 % 14 % 1028 hPa 0,0 l/m 4,9 km/h (1 Bft) 0 min 0 min
28.11.2018 09:09 21,5 C -0,2 C 0,8 C 89 % 15 % 1028 hPa 0,0 l/m 5,1 km/h (1 Bft) 0 min 0 min
28.11.2018 09:12 21,4 C -0,2 C 0,9 C 89 % 14 % 1028 hPa 0,0 l/m 6,2 km/h (2 Bft) 0 min 0 min
28.11.2018 09:15 21,4 C -0,2 C 0,9 C 89 % 14 % 1028 hPa 0,0 l/m 5,7 km/h (1 Bft) 0 min 0 min
28.11.2018 09:18 21,4 C -0,2 C 0,9 C 89 % 15 % 1028 hPa 0,0 l/m 6,3 km/h (2 Bft) 0 min 0 min
28.11.2018 09:21 21,4 C 0,0 C 0,8 C 88 % 17 % 1028 hPa 0,0 l/m 10,1 km/h (2 Bft) 0 min 0 min
28.11.2018 09:24 21,3 C -0,2 C 1,0 C 88 % 20 % 1028 hPa 0,0 l/m 8,2 km/h (2 Bft) 0 min 0 min
28.11.2018 09:27 21,4 C 0,0 C 0,9 C 88 % 23 % 1028 hPa 0,0 l/m 7,4 km/h (2 Bft) 0 min 0 min
28.11.2018 09:30 21,4 C 0,0 C 0,9 C 88 % 27 % 1028 hPa 0,0 l/m 8,7 km/h (2 Bft) 0 min 0 min
28.11.2018 09:33 21,5 C 0,1 C 1,0 C 87 % 26 % 1028 hPa 0,0 l/m 10,1 km/h (2 Bft) 0 min 0 min
28.11.2018 09:36 21,5 C 0,1 C 1,0 C 87 % 34 % 1028 hPa 0,0 l/m 13,8 km/h (3 Bft) 0 min 0 min
28.11.2018 09:39 21,7 C 0,3 C 1,1 C 87 % 38 % 1028 hPa 0,0 l/m 11,3 km/h (2 Bft) 0 min 0 min
28.11.2018 09:42 21,7 C 0,3 C 1,1 C 86 % 31 % 1028 hPa 0,0 l/m 15,5 km/h (3 Bft) 0 min 0 min
28.11.2018 09:45 21,8 C 0,3 C 1,2 C 86 % 30 % 1028 hPa 0,0 l/m 11,9 km/h (2 Bft) 0 min 0 min
28.11.2018 09:48 21,8 C 0,5 C 1,1 C 86 % 29 % 1028 hPa 0,0 l/m 7,4 km/h (2 Bft) 0 min 0 min
28.11.2018 09:51 21,8 C 0,5 C 1,2 C 86 % 29 % 1028 hPa 0,0 l/m 14,6 km/h (3 Bft) 0 min 0 min
28.11.2018 09:54 21,8 C 0,4 C 1,2 C 86 % 28 % 1028 hPa 0,0 l/m 9,2 km/h (2 Bft) 0 min 0 min
28.11.2018 09:57 21,8 C 0,5 C 1,2 C 86 % 28 % 1028 hPa 0,0 l/m 11,6 km/h (2 Bft) 0 min 0 min
28.11.2018 10:00 21,8 C 0,5 C 1,2 C 86 % 30 % 1028 hPa 0,0 l/m 7,5 km/h (2 Bft) 0 min 0 min
28.11.2018 10:03 21,8 C 0,5 C 1,2 C 86 % 29 % 1028 hPa 0,0 l/m 6,8 km/h (2 Bft) 0 min 0 min
28.11.2018 10:06 21,8 C 0,6 C 1,2 C 86 % 29 % 1028 hPa 0,0 l/m 8,2 km/h (2 Bft) 0 min 0 min
28.11.2018 10:09 21,8 C 0,6 C 1,4 C 86 % 28 % 1028 hPa 0,0 l/m 6,0 km/h (2 Bft) 0 min 0 min
28.11.2018 10:12 21,8 C 0,6 C 1,2 C 85 % 29 % 1028 hPa 0,0 l/m 11,6 km/h (2 Bft) 0 min 0 min
28.11.2018 10:15 21,7 C 0,6 C 1,3 C 85 % 29 % 1028 hPa 0,0 l/m 11,6 km/h (2 Bft) 0 min 0 min
28.11.2018 10:18 21,6 C 0,6 C 1,3 C 85 % 30 % 1028 hPa 0,0 l/m 12,1 km/h (2 Bft) 0 min 0 min
28.11.2018 10:21 21,6 C 0,7 C 1,3 C 85 % 37 % 1028 hPa 0,0 l/m 11,7 km/h (2 Bft) 0 min 0 min
28.11.2018 10:24 21,5 C 0,7 C 1,5 C 85 % 39 % 1028 hPa 0,0 l/m 9,3 km/h (2 Bft) 0 min 0 min
28.11.2018 10:27 21,4 C 0,9 C 1,5 C 84 % 38 % 1028 hPa 0,0 l/m 9,4 km/h (2 Bft) 0 min 0 min
28.11.2018 10:30 21,3 C 0,9 C 1,5 C 83 % 61 % 1028 hPa 0,0 l/m 11,6 km/h (2 Bft) 3 min 0 min
28.11.2018 10:33 21,3 C 0,9 C 1,5 C 83 % 60 % 1028 hPa 0,0 l/m 15,0 km/h (3 Bft) 3 min 0 min
28.11.2018 10:36 21,2 C 1,2 C 1,6 C 82 % 61 % 1028 hPa 0,0 l/m 11,7 km/h (2 Bft) 3 min 0 min
28.11.2018 10:39 21,2 C 1,3 C 1,6 C 82 % 46 % 1028 hPa 0,0 l/m 10,1 km/h (2 Bft) 0 min 0 min
28.11.2018 10:42 21,2 C 1,3 C 1,6 C 82 % 62 % 1028 hPa 0,0 l/m 11,6 km/h (2 Bft) 3 min 0 min
28.11.2018 10:45 21,2 C 1,5 C 1,6 C 81 % 65 % 1028 hPa 0,0 l/m 11,3 km/h (2 Bft) 3 min 0 min
28.11.2018 10:48 21,2 C 1,5 C 1,7 C 82 % 47 % 1028 hPa 0,0 l/m 8,2 km/h (2 Bft) 0 min 0 min
28.11.2018 10:51 21,2 C 1,4 C 1,7 C 81 % 36 % 1028 hPa 0,0 l/m 12,6 km/h (3 Bft) 0 min 0 min
28.11.2018 10:54 21,2 C 1,4 C 1,7 C 80 % 64 % 1029 hPa 0,0 l/m 12,7 km/h (3 Bft) 3 min 0 min
28.11.2018 10:57 21,2 C 1,4 C 1,7 C 80 % 74 % 1029 hPa 0,0 l/m 11,8 km/h (2 Bft) 3 min 0 min
28.11.2018 11:00 21,2 C 1,7 C 1,7 C 81 % 74 % 1028 hPa 0,0 l/m 8,0 km/h (2 Bft) 3 min 0 min
28.11.2018 11:03 21,3 C 1,9 C 1,8 C 79 % 48 % 1028 hPa 0,0 l/m 11,1 km/h (2 Bft) 0 min 0 min
28.11.2018 11:06 21,3 C 1,9 C 1,8 C 79 % 51 % 1028 hPa 0,0 l/m 9,7 km/h (2 Bft) 0 min 0 min
28.11.2018 11:09 21,4 C 1,9 C 1,7 C 79 % 57 % 1028 hPa 0,0 l/m 14,4 km/h (3 Bft) 3 min 0 min
28.11.2018 11:12 21,4 C 1,8 C 1,8 C 78 % 61 % 1028 hPa 0,0 l/m 14,3 km/h (3 Bft) 3 min 0 min
28.11.2018 11:15 21,4 C 1,8 C 1,8 C 79 % 53 % 1028 hPa 0,0 l/m 15,7 km/h (3 Bft) 0 min 0 min
28.11.2018 11:18 21,4 C 1,7 C 1,9 C 78 % 62 % 1028 hPa 0,0 l/m 17,5 km/h (3 Bft) 3 min 0 min
28.11.2018 11:21 21,1 C 1,8 C 1,9 C 79 % 42 % 1028 hPa 0,0 l/m 15,1 km/h (3 Bft) 0 min 0 min
28.11.2018 11:24 20,7 C 1,9 C 1,9 C 79 % 32 % 1028 hPa 0,0 l/m 13,0 km/h (3 Bft) 0 min 0 min
28.11.2018 11:27 20,7 C 1,8 C 1,9 C 80 % 32 % 1028 hPa 0,0 l/m 11,8 km/h (2 Bft) 0 min 0 min
28.11.2018 11:30 20,2 C 1,7 C 1,8 C 80 % 30 % 1028 hPa 0,0 l/m 12,6 km/h (3 Bft) 0 min 0 min
28.11.2018 11:33 20,0 C 1,7 C 1,8 C 80 % 67 % 1028 hPa 0,0 l/m 9,6 km/h (2 Bft) 3 min 0 min
28.11.2018 11:36 20,0 C 1,7 C 2,0 C 80 % 36 % 1028 hPa 0,0 l/m 9,6 km/h (2 Bft) 0 min 0 min
28.11.2018 11:39 20,1 C 1,7 C 1,9 C 81 % 70 % 1028 hPa 0,0 l/m 8,1 km/h (2 Bft) 3 min 0 min
28.11.2018 11:42 20,4 C 1,7 C 1,7 C 81 % 25 % 1028 hPa 0,0 l/m 8,9 km/h (2 Bft) 0 min 0 min
28.11.2018 11:45 20,7 C 1,4 C 1,8 C 80 % 23 % 1028 hPa 0,0 l/m 10,0 km/h (2 Bft) 0 min 0 min
28.11.2018 11:48 20,8 C 1,4 C 1,8 C 80 % 24 % 1028 hPa 0,0 l/m 9,2 km/h (2 Bft) 0 min 0 min
28.11.2018 11:51 21,0 C 1,4 C 1,9 C 81 % 24 % 1028 hPa 0,0 l/m 6,8 km/h (2 Bft) 0 min 0 min
28.11.2018 11:54 21,0 C 1,4 C 1,9 C 80 % 31 % 1028 hPa 0,0 l/m 12,6 km/h (3 Bft) 0 min 0 min
28.11.2018 11:57 21,2 C 1,4 C 2,0 C 80 % 27 % 1028 hPa 0,0 l/m 12,6 km/h (3 Bft) 0 min 0 min
28.11.2018 12:00 21,2 C 1,2 C 2,1 C 79 % 23 % 1028 hPa 0,0 l/m 13,8 km/h (3 Bft) 0 min 0 min
28.11.2018 12:03 21,2 C 1,2 C 2,0 C 79 % 23 % 1028 hPa 0,0 l/m 15,8 km/h (3 Bft) 0 min 0 min
28.11.2018 12:06 21,2 C 1,3 C 2,0 C 78 % 39 % 1028 hPa 0,0 l/m 16,1 km/h (3 Bft) 0 min 0 min
28.11.2018 12:09 21,3 C 1,4 C 2,1 C 78 % 37 % 1028 hPa 0,0 l/m 12,6 km/h (3 Bft) 0 min 0 min
28.11.2018 12:12 21,3 C 1,5 C 1,9 C 77 % 34 % 1028 hPa 0,0 l/m 13,5 km/h (3 Bft) 0 min 0 min
28.11.2018 12:15 21,4 C 1,5 C 1,9 C 78 % 33 % 1028 hPa 0,0 l/m 11,0 km/h (2 Bft) 0 min 0 min
28.11.2018 12:18 21,4 C 1,4 C 1,9 C 78 % 27 % 1028 hPa 0,0 l/m 10,3 km/h (2 Bft) 0 min 0 min
28.11.2018 12:21 21,4 C 1,4 C 2,0 C 78 % 26 % 1028 hPa 0,0 l/m 12,3 km/h (3 Bft) 0 min 0 min
28.11.2018 12:24 21,4 C 1,2 C 1,9 C 78 % 23 % 1028 hPa 0,0 l/m 13,6 km/h (3 Bft) 0 min 0 min
28.11.2018 12:27 21,4 C 1,2 C 2,0 C 79 % 21 % 1029 hPa 0,0 l/m 9,8 km/h (2 Bft) 0 min 0 min
28.11.2018 12:30 21,4 C 1,2 C 2,1 C 79 % 20 % 1029 hPa 0,0 l/m 11,7 km/h (2 Bft) 0 min 0 min
28.11.2018 12:33 21,5 C 1,2 C 2,0 C 78 % 19 % 1029 hPa 0,0 l/m 12,2 km/h (2 Bft) 0 min 0 min
28.11.2018 12:36 21,5 C 1,2 C 2,0 C 79 % 19 % 1028 hPa 0,0 l/m 12,8 km/h (3 Bft) 0 min 0 min
28.11.2018 12:39 21,5 C 1,2 C 2,0 C 80 % 19 % 1028 hPa 0,0 l/m 12,1 km/h (2 Bft) 0 min 0 min
28.11.2018 12:42 21,5 C 1,2 C 2,1 C 79 % 19 % 1028 hPa 0,0 l/m 14,1 km/h (3 Bft) 0 min 0 min
28.11.2018 12:45 21,5 C 1,2 C 2,1 C 79 % 19 % 1028 hPa 0,0 l/m 8,5 km/h (2 Bft) 0 min 0 min
28.11.2018 12:48 21,5 C 1,2 C 1,9 C 79 % 19 % 1028 hPa 0,0 l/m 7,9 km/h (2 Bft) 0 min 0 min
28.11.2018 12:51 21,5 C 1,2 C 2,1 C 78 % 20 % 1028 hPa 0,0 l/m 13,1 km/h (3 Bft) 0 min 0 min
28.11.2018 12:54 21,6 C 1,2 C 2,1 C 79 % 19 % 1028 hPa 0,0 l/m 7,9 km/h (2 Bft) 0 min 0 min
28.11.2018 12:57 21,5 C 1,2 C 2,1 C 79 % 17 % 1028 hPa 0,0 l/m 11,1 km/h (2 Bft) 0 min 0 min
28.11.2018 13:00 21,5 C 1,1 C 2,0 C 78 % 17 % 1028 hPa 0,0 l/m 11,8 km/h (2 Bft) 0 min 0 min
28.11.2018 13:03 21,6 C 1,1 C 1,9 C 78 % 17 % 1028 hPa 0,0 l/m 12,6 km/h (3 Bft) 0 min 0 min
28.11.2018 13:06 21,6 C 1,1 C 1,9 C 79 % 17 % 1028 hPa 0,0 l/m 11,2 km/h (2 Bft) 0 min 0 min
28.11.2018 13:09 21,6 C 1,2 C 2,0 C 79 % 17 % 1028 hPa 0,0 l/m 13,8 km/h (3 Bft) 0 min 0 min
28.11.2018 13:12 21,6 C 1,1 C 2,0 C 79 % 18 % 1028 hPa 0,0 l/m 13,8 km/h (3 Bft) 0 min 0 min
28.11.2018 13:15 21,6 C 1,1 C 1,9 C 79 % 16 % 1028 hPa 0,0 l/m 13,8 km/h (3 Bft) 0 min 0 min
28.11.2018 13:18 21,6 C 1,2 C 2,0 C 79 % 15 % 1028 hPa 0,0 l/m 11,5 km/h (2 Bft) 0 min 0 min
28.11.2018 13:21 21,6 C 1,2 C 2,0 C 79 % 15 % 1028 hPa 0,0 l/m 9,6 km/h (2 Bft) 0 min 0 min
28.11.2018 13:24 21,6 C 1,2 C 2,1 C 79 % 16 % 1028 hPa 0,0 l/m 11,8 km/h (2 Bft) 0 min 0 min
28.11.2018 13:27 21,6 C 1,1 C 2,0 C 80 % 16 % 1028 hPa 0,0 l/m 9,3 km/h (2 Bft) 0 min 0 min
28.11.2018 13:30 21,6 C 1,2 C 2,0 C 80 % 15 % 1028 hPa 0,0 l/m 13,5 km/h (3 Bft) 0 min 0 min
28.11.2018 13:33 21,6 C 1,2 C 2,1 C 79 % 14 % 1028 hPa 0,0 l/m 11,8 km/h (2 Bft) 0 min 0 min
28.11.2018 13:36 21,6 C 1,2 C 2,1 C 80 % 14 % 1028 hPa 0,0 l/m 6,8 km/h (2 Bft) 0 min 0 min
28.11.2018 13:39 21,6 C 1,2 C 2,3 C 80 % 14 % 1028 hPa 0,0 l/m 8,7 km/h (2 Bft) 0 min 0 min
28.11.2018 13:42 21,7 C 1,2 C 2,2 C 80 % 14 % 1028 hPa 0,0 l/m 8,1 km/h (2 Bft) 0 min 0 min
28.11.2018 13:45 21,7 C 1,2 C 2,2 C 80 % 14 % 1028 hPa 0,0 l/m 6,2 km/h (2 Bft) 0 min 0 min
28.11.2018 13:48 21,7 C 1,2 C 2,1 C 78 % 14 % 1028 hPa 0,0 l/m 11,6 km/h (2 Bft) 0 min 0 min
28.11.2018 13:51 21,7 C 1,2 C 2,2 C 79 % 14 % 1028 hPa 0,0 l/m 8,9 km/h (2 Bft) 0 min 0 min
28.11.2018 13:54 21,7 C 1,2 C 2,1 C 79 % 14 % 1028 hPa 0,0 l/m 8,9 km/h (2 Bft) 0 min 0 min
28.11.2018 13:57 21,6 C 1,2 C 2,1 C 78 % 14 % 1028 hPa 0,0 l/m 8,7 km/h (2 Bft) 0 min 0 min
28.11.2018 14:00 21,7 C 1,1 C 2,1 C 78 % 15 % 1028 hPa 0,0 l/m 12,3 km/h (3 Bft) 0 min 0 min
28.11.2018 14:03 21,7 C 1,1 C 2,2 C 79 % 15 % 1028 hPa 0,0 l/m 11,2 km/h (2 Bft) 0 min 0 min
28.11.2018 14:06 21,7 C 1,2 C 2,1 C 79 % 15 % 1028 hPa 0,0 l/m 11,3 km/h (2 Bft) 0 min 0 min
28.11.2018 14:09 21,7 C 1,2 C 2,0 C 79 % 15 % 1028 hPa 0,0 l/m 11,3 km/h (2 Bft) 0 min 0 min
28.11.2018 14:12 21,7 C 1,2 C 2,1 C 79 % 14 % 1028 hPa 0,0 l/m 10,6 km/h (2 Bft) 0 min 0 min
28.11.2018 14:15 21,6 C 1,2 C 2,0 C 78 % 14 % 1028 hPa 0,0 l/m 12,3 km/h (3 Bft) 0 min 0 min
28.11.2018 14:18 21,7 C 1,2 C 2,2 C 78 % 14 % 1028 hPa 0,0 l/m 14,0 km/h (3 Bft) 0 min 0 min
28.11.2018 14:21 21,6 C 1,2 C 1,9 C 79 % 14 % 1028 hPa 0,0 l/m 14,5 km/h (3 Bft) 0 min 0 min
28.11.2018 14:24 21,7 C 1,2 C 2,1 C 79 % 14 % 1028 hPa 0,0 l/m 11,1 km/h (2 Bft) 0 min 0 min
28.11.2018 14:27 21,7 C 1,1 C 1,9 C 77 % 16 % 1028 hPa 0,0 l/m 6,5 km/h (2 Bft) 0 min 0 min
28.11.2018 14:30 21,7 C 1,0 C 2,1 C 77 % 15 % 1028 hPa 0,0 l/m 6,5 km/h (2 Bft) 0 min 0 min
28.11.2018 14:33 21,7 C 0,9 C 2,1 C 78 % 16 % 1028 hPa 0,0 l/m 5,6 km/h (1 Bft) 0 min 0 min
28.11.2018 14:36 21,7 C 0,9 C 2,1 C 78 % 17 % 1028 hPa 0,0 l/m 7,2 km/h (2 Bft) 0 min 0 min
28.11.2018 14:39 21,7 C 0,8 C 1,9 C 78 % 17 % 1028 hPa 0,0 l/m 6,7 km/h (2 Bft) 0 min 0 min
28.11.2018 14:42 21,7 C 0,9 C 2,1 C 79 % 17 % 1028 hPa 0,0 l/m 5,2 km/h (1 Bft) 0 min 0 min
28.11.2018 14:45 21,7 C 0,9 C 2,1 C 79 % 18 % 1028 hPa 0,0 l/m 5,2 km/h (1 Bft) 0 min 0 min
28.11.2018 14:48 21,7 C 0,9 C 2,1 C 79 % 18 % 1028 hPa 0,0 l/m 6,8 km/h (2 Bft) 0 min 0 min
28.11.2018 14:51 21,8 C 0,9 C 2,0 C 79 % 17 % 1028 hPa 0,0 l/m 6,8 km/h (2 Bft) 0 min 0 min
28.11.2018 14:54 21,8 C 0,9 C 1,9 C 79 % 17 % 1028 hPa 0,0 l/m 3,4 km/h (1 Bft) 0 min 0 min
28.11.2018 14:57 21,8 C 0,8 C 1,9 C 79 % 19 % 1028 hPa 0,0 l/m 9,3 km/h (2 Bft) 0 min 0 min
28.11.2018 15:00 21,8 C 0,8 C 2,1 C 79 % 20 % 1028 hPa 0,0 l/m 7,6 km/h (2 Bft) 0 min 0 min
28.11.2018 15:03 21,8 C 0,8 C 2,0 C 79 % 19 % 1028 hPa 0,0 l/m 4,2 km/h (1 Bft) 0 min 0 min
28.11.2018 15:06 21,7 C 0,8 C 1,7 C 79 % 18 % 1028 hPa 0,0 l/m 2,4 km/h (1 Bft) 0 min 0 min
28.11.2018 15:09 21,7 C 0,7 C 1,7 C 79 % 18 % 1028 hPa 0,0 l/m 7,0 km/h (2 Bft) 0 min 0 min
28.11.2018 15:12 21,8 C 0,7 C 1,8 C 79 % 16 % 1028 hPa 0,0 l/m 4,3 km/h (1 Bft) 0 min 0 min
28.11.2018 15:15 21,8 C 0,7 C 1,8 C 79 % 15 % 1028 hPa 0,0 l/m 8,1 km/h (2 Bft) 0 min 0 min
28.11.2018 15:18 21,8 C 0,6 C 1,9 C 79 % 14 % 1028 hPa 0,0 l/m 5,0 km/h (1 Bft) 0 min 0 min
28.11.2018 15:21 21,8 C 0,5 C 1,7 C 79 % 13 % 1028 hPa 0,0 l/m 10,0 km/h (2 Bft) 0 min 0 min
28.11.2018 15:24 21,7 C 0,5 C 1,8 C 80 % 13 % 1028 hPa 0,0 l/m 5,9 km/h (2 Bft) 0 min 0 min
28.11.2018 15:27 21,8 C 0,5 C 1,7 C 80 % 12 % 1028 hPa 0,0 l/m 3,6 km/h (1 Bft) 0 min 0 min
28.11.2018 15:30 21,8 C 0,5 C 1,6 C 80 % 12 % 1028 hPa 0,0 l/m 5,4 km/h (1 Bft) 0 min 0 min
28.11.2018 15:33 21,8 C 0,4 C 1,4 C 80 % 12 % 1028 hPa 0,0 l/m 3,5 km/h (1 Bft) 0 min 0 min
28.11.2018 15:36 21,8 C 0,4 C 1,7 C 80 % 10 % 1028 hPa 0,0 l/m 2,7 km/h (1 Bft) 0 min 0 min
28.11.2018 15:39 21,8 C 0,3 C 1,7 C 81 % 10 % 1028 hPa 0,0 l/m 0,8 km/h (0 Bft) 0 min 0 min
28.11.2018 15:42 21,8 C 0,3 C 1,7 C 81 % 8 % 1028 hPa 0,0 l/m 1,3 km/h (1 Bft) 0 min 0 min
28.11.2018 15:45 21,8 C 0,3 C 1,5 C 81 % 7 % 1028 hPa 0,0 l/m 2,4 km/h (1 Bft) 0 min 0 min
28.11.2018 15:48 21,8 C 0,3 C 1,6 C 81 % 7 % 1028 hPa 0,0 l/m 3,0 km/h (1 Bft) 0 min 0 min
28.11.2018 15:51 21,8 C 0,2 C 1,3 C 81 % 6 % 1028 hPa 0,0 l/m 2,5 km/h (1 Bft) 0 min 0 min
28.11.2018 15:54 21,8 C 0,1 C 1,4 C 81 % 5 % 1028 hPa 0,0 l/m 0,0 km/h (0 Bft) 0 min 0 min
28.11.2018 15:57 21,8 C 0,0 C 1,3 C 82 % 5 % 1028 hPa 0,0 l/m 0,0 km/h (0 Bft) 0 min 0 min
28.11.2018 16:00 21,8 C -0,2 C 1,6 C 82 % 4 % 1028 hPa 0,0 l/m 0,0 km/h (0 Bft) 3 min 0 min
28.11.2018 16:03 21,8 C -0,3 C 1,5 C 82 % 4 % 1028 hPa 0,0 l/m 0,0 km/h (0 Bft) 3 min 0 min
28.11.2018 16:06 21,8 C -0,4 C 1,2 C 82 % 3 % 1028 hPa 0,0 l/m 0,0 km/h (0 Bft) 0 min 0 min
28.11.2018 16:09 21,8 C -0,5 C 0,9 C 82 % 3 % 1028 hPa 0,0 l/m 0,1 km/h (0 Bft) 0 min 0 min
28.11.2018 16:12 21,8 C -0,6 C 0,9 C 82 % 2 % 1028 hPa 0,0 l/m 0,0 km/h (0 Bft) 0 min 0 min
28.11.2018 16:15 21,8 C -0,6 C 1,1 C 82 % 2 % 1028 hPa 0,0 l/m 0,0 km/h (0 Bft) 0 min 0 min
28.11.2018 16:18 21,9 C -0,7 C 0,9 C 83 % 2 % 1028 hPa 0,0 l/m 0,0 km/h (0 Bft) 0 min 0 min
28.11.2018 16:21 21,8 C -0,8 C 0,8 C 83 % 1 % 1028 hPa 0,0 l/m 0,0 km/h (0 Bft) 0 min 0 min
28.11.2018 16:24 21,9 C -0,9 C 0,6 C 83 % 1 % 1028 hPa 0,0 l/m 0,0 km/h (0 Bft) 0 min 0 min
28.11.2018 16:27 21,9 C -1,0 C 0,7 C 83 % 1 % 1028 hPa 0,0 l/m 0,0 km/h (0 Bft) 0 min 0 min
28.11.2018 16:30 21,9 C -1,0 C 0,6 C 83 % 1 % 1028 hPa 0,0 l/m 0,0 km/h (0 Bft) 0 min 0 min
28.11.2018 16:33 21,9 C -1,0 C 0,7 C 84 % 1 % 1028 hPa 0,0 l/m 0,0 km/h (0 Bft) 0 min 0 min
28.11.2018 16:36 21,9 C -1,1 C 0,5 C 84 % 1 % 1028 hPa 0,0 l/m 0,0 km/h (0 Bft) 0 min 0 min
28.11.2018 16:39 21,9 C -1,1 C 0,5 C 84 % 1 % 1028 hPa 0,0 l/m 0,0 km/h (0 Bft) 0 min 0 min
28.11.2018 16:42 21,9 C -1,2 C 0,7 C 84 % 1 % 1028 hPa 0,0 l/m 0,0 km/h (0 Bft) 0 min 0 min
28.11.2018 16:45 21,9 C -1,3 C 0,8 C 84 % 1 % 1028 hPa 0,0 l/m 0,0 km/h (0 Bft) 0 min 0 min
28.11.2018 16:48 21,9 C -1,3 C 1,0 C 85 % 1 % 1028 hPa 0,0 l/m 0,0 km/h (0 Bft) 0 min 0 min
28.11.2018 16:51 21,9 C -1,3 C 1,0 C 85 % 1 % 1028 hPa 0,0 l/m 0,0 km/h (0 Bft) 0 min 0 min
28.11.2018 16:54 21,9 C -1,4 C 0,8 C 85 % 1 % 1028 hPa 0,0 l/m 0,0 km/h (0 Bft) 0 min 0 min
28.11.2018 16:57 21,9 C -1,4 C 0,5 C 85 % 1 % 1028 hPa 0,0 l/m 0,0 km/h (0 Bft) 0 min 0 min
28.11.2018 17:00 21,9 C -1,5 C 0,6 C 85 % 1 % 1028 hPa 0,0 l/m 0,0 km/h (0 Bft) 0 min 0 min
28.11.2018 17:03 21,9 C -1,5 C 0,7 C 85 % 1 % 1028 hPa 0,0 l/m 0,0 km/h (0 Bft) 0 min 0 min
28.11.2018 17:06 21,9 C -1,6 C 0,5 C 85 % 1 % 1028 hPa 0,0 l/m 0,0 km/h (0 Bft) 0 min 0 min
28.11.2018 17:09 22,0 C -1,6 C 0,9 C 85 % 1 % 1028 hPa 0,0 l/m 0,0 km/h (0 Bft) 0 min 0 min
28.11.2018 17:12 21,9 C -1,6 C 1,0 C 85 % 1 % 1028 hPa 0,0 l/m 0,0 km/h (0 Bft) 0 min 0 min
28.11.2018 17:15 21,9 C -1,7 C 0,6 C 85 % 1 % 1028 hPa 0,0 l/m 0,0 km/h (0 Bft) 0 min 0 min
28.11.2018 17:18 21,9 C -1,7 C 0,8 C 85 % 1 % 1028 hPa 0,0 l/m 0,0 km/h (0 Bft) 0 min 0 min
28.11.2018 17:21 22,0 C -1,8 C 0,8 C 86 % 1 % 1028 hPa 0,0 l/m 0,0 km/h (0 Bft) 0 min 0 min
28.11.2018 17:24 21,9 C -1,8 C 0,8 C 86 % 1 % 1028 hPa 0,0 l/m 0,0 km/h (0 Bft) 0 min 0 min
28.11.2018 17:27 22,0 C -1,8 C 0,3 C 86 % 1 % 1028 hPa 0,0 l/m 0,0 km/h (0 Bft) 0 min 0 min
28.11.2018 17:30 21,9 C -1,8 C 0,4 C 86 % 1 % 1028 hPa 0,0 l/m 0,0 km/h (0 Bft) 0 min 0 min
28.11.2018 17:33 22,0 C -1,8 C 0,5 C 86 % 1 % 1028 hPa 0,0 l/m 0,3 km/h (0 Bft) 0 min 0 min
28.11.2018 17:36 21,9 C -1,8 C 0,5 C 86 % 1 % 1028 hPa 0,0 l/m 1,3 km/h (1 Bft) 0 min 0 min
28.11.2018 17:39 21,9 C -1,8 C 0,6 C 87 % 1 % 1028 hPa 0,0 l/m 0,0 km/h (0 Bft) 0 min 0 min
28.11.2018 17:42 22,0 C -1,8 C 0,6 C 86 % 1 % 1028 hPa 0,0 l/m 0,0 km/h (0 Bft) 0 min 0 min
28.11.2018 17:45 22,0 C -1,9 C 0,6 C 87 % 1 % 1028 hPa 0,0 l/m 0,0 km/h (0 Bft) 0 min 0 min
28.11.2018 17:48 22,0 C -2,0 C 0,7 C 87 % 1 % 1029 hPa 0,0 l/m 0,0 km/h (0 Bft) 0 min 0 min
28.11.2018 17:51 22,0 C -2,0 C 0,5 C 87 % 1 % 1029 hPa 0,0 l/m 0,0 km/h (0 Bft) 0 min 0 min
28.11.2018 17:54 22,0 C -2,0 C 0,4 C 87 % 1 % 1029 hPa 0,0 l/m 0,0 km/h (0 Bft) 0 min 0 min
28.11.2018 17:57 22,0 C -2,1 C 0,2 C 87 % 1 % 1029 hPa 0,0 l/m 0,0 km/h (0 Bft) 0 min 0 min
28.11.2018 18:00 22,0 C -2,1 C 0,1 C 87 % 1 % 1029 hPa 0,0 l/m 0,0 km/h (0 Bft) 0 min 0 min
28.11.2018 18:03 22,0 C -2,1 C 0,4 C 87 % 1 % 1029 hPa 0,0 l/m 0,0 km/h (0 Bft) 0 min 0 min
28.11.2018 18:06 22,1 C -2,2 C 0,4 C 87 % 1 % 1029 hPa 0,0 l/m 0,0 km/h (0 Bft) 0 min 0 min
28.11.2018 18:09 22,1 C -2,2 C 0,4 C 87 % 1 % 1029 hPa 0,0 l/m 0,0 km/h (0 Bft) 0 min 0 min
28.11.2018 18:12 22,2 C -2,2 C 0,4 C 87 % 1 % 1029 hPa 0,0 l/m 0,0 km/h (0 Bft) 0 min 0 min
28.11.2018 18:15 22,2 C -2,2 C 0,1 C 87 % 1 % 1029 hPa 0,0 l/m 0,0 km/h (0 Bft) 0 min 0 min
28.11.2018 18:18 22,3 C -2,2 C 0,1 C 87 % 1 % 1029 hPa 0,0 l/m 0,0 km/h (0 Bft) 0 min 0 min
28.11.2018 18:21 22,4 C -2,2 C -0,2 C 87 % 1 % 1029 hPa 0,0 l/m 0,0 km/h (0 Bft) 0 min 0 min
28.11.2018 18:24 22,4 C -2,2 C 0,2 C 87 % 1 % 1029 hPa 0,0 l/m 0,0 km/h (0 Bft) 0 min 0 min
28.11.2018 18:27 22,5 C -2,3 C 0,0 C 87 % 1 % 1029 hPa 0,0 l/m 0,0 km/h (0 Bft) 0 min 0 min
28.11.2018 18:30 22,6 C -2,3 C -0,2 C 87 % 1 % 1029 hPa 0,0 l/m 0,0 km/h (0 Bft) 0 min 0 min
28.11.2018 18:33 22,6 C -2,3 C 0,2 C 87 % 1 % 1029 hPa 0,0 l/m 0,0 km/h (0 Bft) 0 min 0 min
28.11.2018 18:36 22,6 C -2,4 C 0,3 C 87 % 1 % 1029 hPa 0,0 l/m 0,0 km/h (0 Bft) 0 min 0 min
28.11.2018 18:39 22,7 C -2,4 C -0,2 C 87 % 1 % 1029 hPa 0,0 l/m 0,0 km/h (0 Bft) 0 min 0 min
28.11.2018 18:42 22,7 C -2,4 C -0,3 C 87 % 1 % 1029 hPa 0,0 l/m 0,0 km/h (0 Bft) 0 min 0 min
28.11.2018 18:45 22,8 C -2,5 C 0,1 C 87 % 1 % 1029 hPa 0,0 l/m 0,0 km/h (0 Bft) 0 min 0 min
28.11.2018 18:48 22,8 C -2,5 C 0,1 C 87 % 1 % 1029 hPa 0,0 l/m 0,0 km/h (0 Bft) 0 min 0 min
28.11.2018 18:51 22,9 C -2,6 C -0,2 C 87 % 1 % 1029 hPa 0,0 l/m 0,0 km/h (0 Bft) 0 min 0 min
28.11.2018 18:54 23,0 C -2,6 C -0,2 C 87 % 1 % 1029 hPa 0,0 l/m 0,0 km/h (0 Bft) 0 min 0 min
28.11.2018 18:57 23,1 C -2,6 C 0,1 C 87 % 1 % 1029 hPa 0,0 l/m 0,0 km/h (0 Bft) 0 min 0 min
28.11.2018 19:00 23,2 C -2,6 C -0,3 C 87 % 1 % 1029 hPa 0,0 l/m 0,0 km/h (0 Bft) 0 min 0 min
28.11.2018 19:03 23,2 C -2,6 C -0,3 C 87 % 1 % 1029 hPa 0,0 l/m 0,0 km/h (0 Bft) 0 min 0 min
28.11.2018 19:06 23,2 C -2,7 C -0,2 C 87 % 1 % 1029 hPa 0,0 l/m 0,0 km/h (0 Bft) 0 min 0 min
28.11.2018 19:09 23,2 C -2,7 C -0,1 C 87 % 1 % 1029 hPa 0,0 l/m 0,0 km/h (0 Bft) 0 min 0 min
28.11.2018 19:12 23,3 C -2,7 C -0,5 C 88 % 1 % 1029 hPa 0,0 l/m 0,2 km/h (0 Bft) 0 min 0 min
28.11.2018 19:15 23,3 C -2,6 C -0,6 C 88 % 1 % 1029 hPa 0,0 l/m 0,0 km/h (0 Bft) 0 min 0 min
28.11.2018 19:18 23,2 C -2,7 C -0,1 C 88 % 1 % 1029 hPa 0,0 l/m 0,0 km/h (0 Bft) 0 min 0 min
28.11.2018 19:21 23,2 C -2,7 C -0,3 C 88 % 1 % 1029 hPa 0,0 l/m 0,0 km/h (0 Bft) 0 min 0 min
28.11.2018 19:24 23,2 C -2,8 C -0,6 C 88 % 1 % 1029 hPa 0,0 l/m 0,0 km/h (0 Bft) 0 min 0 min
28.11.2018 19:27 23,2 C -2,8 C -0,6 C 88 % 1 % 1029 hPa 0,0 l/m 0,0 km/h (0 Bft) 0 min 0 min
28.11.2018 19:30 23,2 C -2,8 C -0,5 C 88 % 1 % 1029 hPa 0,0 l/m 0,0 km/h (0 Bft) 0 min 0 min
28.11.2018 19:33 23,2 C -2,8 C -0,7 C 88 % 1 % 1029 hPa 0,0 l/m 0,0 km/h (0 Bft) 0 min 0 min
28.11.2018 19:36 23,1 C -2,8 C -0,7 C 88 % 1 % 1029 hPa 0,0 l/m 0,0 km/h (0 Bft) 0 min 0 min
28.11.2018 19:39 23,1 C -2,8 C -0,5 C 88 % 1 % 1029 hPa 0,0 l/m 0,1 km/h (0 Bft) 0 min 0 min
28.11.2018 19:42 23,1 C -2,8 C -0,7 C 88 % 1 % 1029 hPa 0,0 l/m 0,0 km/h (0 Bft) 0 min 0 min
28.11.2018 19:45 23,2 C -2,9 C -0,8 C 88 % 1 % 1029 hPa 0,0 l/m 0,0 km/h (0 Bft) 0 min 0 min
28.11.2018 19:48 23,2 C -2,8 C -0,9 C 88 % 1 % 1029 hPa 0,0 l/m 0,0 km/h (0 Bft) 0 min 0 min
28.11.2018 19:51 23,2 C -2,8 C -0,5 C 88 % 1 % 1029 hPa 0,0 l/m 0,0 km/h (0 Bft) 0 min 0 min
28.11.2018 19:54 23,2 C -2,9 C -0,3 C 88 % 1 % 1029 hPa 0,0 l/m 0,0 km/h (0 Bft) 0 min 0 min
28.11.2018 19:57 23,2 C -2,9 C -0,3 C 88 % 1 % 1029 hPa 0,0 l/m 0,0 km/h (0 Bft) 0 min 0 min
28.11.2018 20:00 23,2 C -3,0 C -0,4 C 88 % 1 % 1029 hPa 0,0 l/m 0,0 km/h (0 Bft) 0 min 0 min
28.11.2018 20:03 23,2 C -3,0 C -0,2 C 88 % 1 % 1029 hPa 0,0 l/m 0,0 km/h (0 Bft) 0 min 0 min
28.11.2018 20:06 23,2 C -3,0 C -0,6 C 88 % 1 % 1029 hPa 0,0 l/m 0,0 km/h (0 Bft) 0 min 0 min
28.11.2018 20:09 23,2 C -3,0 C -0,6 C 88 % 1 % 1029 hPa 0,0 l/m 0,0 km/h (0 Bft) 0 min 0 min
28.11.2018 20:12 23,2 C -3,1 C -0,3 C 88 % 1 % 1029 hPa 0,0 l/m 0,0 km/h (0 Bft) 0 min 0 min
28.11.2018 20:15 23,2 C -3,2 C -0,5 C 88 % 1 % 1029 hPa 0,0 l/m 0,0 km/h (0 Bft) 0 min 0 min
28.11.2018 20:18 23,2 C -3,2 C -0,5 C 88 % 1 % 1029 hPa 0,0 l/m 0,0 km/h (0 Bft) 0 min 0 min
28.11.2018 20:21 23,2 C -3,2 C -0,8 C 88 % 1 % 1029 hPa 0,0 l/m 0,0 km/h (0 Bft) 0 min 0 min
28.11.2018 20:24 23,2 C -3,2 C -0,6 C 88 % 1 % 1029 hPa 0,0 l/m 0,0 km/h (0 Bft) 0 min 0 min
28.11.2018 20:27 23,3 C -3,3 C -0,9 C 88 % 1 % 1029 hPa 0,0 l/m 0,0 km/h (0 Bft) 0 min 0 min
28.11.2018 20:30 23,3 C -3,3 C -1,0 C 88 % 1 % 1029 hPa 0,0 l/m 0,0 km/h (0 Bft) 0 min 0 min
28.11.2018 20:33 23,3 C -3,4 C -1,1 C 88 % 1 % 1029 hPa 0,0 l/m 0,0 km/h (0 Bft) 0 min 0 min
28.11.2018 20:36 23,4 C -3,3 C -0,5 C 88 % 1 % 1029 hPa 0,0 l/m 0,0 km/h (0 Bft) 0 min 0 min
28.11.2018 20:39 23,4 C -3,3 C -0,7 C 88 % 1 % 1029 hPa 0,0 l/m 0,0 km/h (0 Bft) 0 min 0 min
28.11.2018 20:42 23,4 C -3,4 C -0,7 C 88 % 1 % 1029 hPa 0,0 l/m 0,0 km/h (0 Bft) 0 min 0 min
28.11.2018 20:45 23,4 C -3,4 C -0,7 C 88 % 1 % 1029 hPa 0,0 l/m 0,0 km/h (0 Bft) 0 min 0 min
28.11.2018 20:48 23,4 C -3,4 C -0,7 C 88 % 1 % 1029 hPa 0,0 l/m 0,0 km/h (0 Bft) 0 min 0 min
28.11.2018 20:51 23,4 C -3,4 C -1,2 C 88 % 1 % 1029 hPa 0,0 l/m 0,0 km/h (0 Bft) 0 min 0 min
28.11.2018 20:54 23,4 C -3,4 C -1,4 C 89 % 1 % 1029 hPa 0,0 l/m 0,0 km/h (0 Bft) 0 min 0 min
28.11.2018 20:57 23,4 C -3,4 C -1,3 C 89 % 1 % 1029 hPa 0,0 l/m 0,0 km/h (0 Bft) 0 min 0 min
28.11.2018 21:00 23,4 C -3,4 C -1,4 C 89 % 1 % 1029 hPa 0,0 l/m 0,0 km/h (0 Bft) 0 min 0 min
28.11.2018 21:03 23,4 C -3,4 C -1,3 C 89 % 1 % 1029 hPa 0,0 l/m 0,0 km/h (0 Bft) 0 min 0 min
28.11.2018 21:06 23,4 C -3,4 C -0,8 C 89 % 1 % 1029 hPa 0,0 l/m 0,0 km/h (0 Bft) 0 min 0 min
28.11.2018 21:09 23,4 C -3,4 C -0,8 C 89 % 1 % 1029 hPa 0,0 l/m 0,0 km/h (0 Bft) 0 min 0 min
28.11.2018 21:12 23,4 C -3,5 C -0,6 C 89 % 1 % 1029 hPa 0,0 l/m 0,0 km/h (0 Bft) 0 min 0 min
28.11.2018 21:15 23,4 C -3,5 C -0,7 C 89 % 1 % 1029 hPa 0,0 l/m 0,0 km/h (0 Bft) 0 min 0 min
28.11.2018 21:18 23,4 C -3,6 C -0,8 C 89 % 1 % 1029 hPa 0,0 l/m 0,0 km/h (0 Bft) 0 min 0 min
28.11.2018 21:21 23,5 C -3,7 C -0,9 C 89 % 1 % 1029 hPa 0,0 l/m 0,0 km/h (0 Bft) 0 min 0 min
28.11.2018 21:24 23,5 C -3,7 C -1,5 C 89 % 1 % 1029 hPa 0,0 l/m 0,0 km/h (0 Bft) 0 min 0 min
28.11.2018 21:27 23,5 C -3,7 C -1,1 C 89 % 1 % 1029 hPa 0,0 l/m 0,0 km/h (0 Bft) 0 min 0 min
28.11.2018 21:30 23,5 C -3,8 C -0,9 C 89 % 1 % 1029 hPa 0,0 l/m 0,0 km/h (0 Bft) 0 min 0 min
28.11.2018 21:33 23,5 C -3,8 C -1,2 C 89 % 1 % 1029 hPa 0,0 l/m 0,0 km/h (0 Bft) 0 min 0 min
28.11.2018 21:36 23,6 C -3,8 C -1,2 C 89 % 1 % 1029 hPa 0,0 l/m 0,0 km/h (0 Bft) 0 min 0 min
28.11.2018 21:39 23,5 C -3,8 C -1,2 C 89 % 1 % 1029 hPa 0,0 l/m 0,0 km/h (0 Bft) 0 min 0 min
28.11.2018 21:42 23,5 C -3,8 C -1,6 C 89 % 1 % 1029 hPa 0,0 l/m 0,0 km/h (0 Bft) 0 min 0 min
28.11.2018 21:45 23,6 C -3,8 C -1,1 C 89 % 1 % 1029 hPa 0,0 l/m 0,0 km/h (0 Bft) 0 min 0 min
28.11.2018 21:48 23,5 C -3,8 C -1,4 C 89 % 1 % 1029 hPa 0,0 l/m 0,0 km/h (0 Bft) 0 min 0 min
28.11.2018 21:51 23,5 C -3,8 C -1,0 C 89 % 1 % 1029 hPa 0,0 l/m 0,1 km/h (0 Bft) 0 min 0 min
28.11.2018 21:54 23,5 C -3,9 C -1,0 C 89 % 1 % 1029 hPa 0,0 l/m 0,0 km/h (0 Bft) 0 min 0 min
28.11.2018 21:57 23,5 C -3,9 C -1,1 C 89 % 1 % 1029 hPa 0,0 l/m 0,0 km/h (0 Bft) 0 min 0 min
28.11.2018 22:00 23,5 C -4,0 C -1,0 C 89 % 1 % 1029 hPa 0,0 l/m 0,0 km/h (0 Bft) 0 min 0 min
28.11.2018 22:03 23,5 C -4,0 C -1,5 C 89 % 1 % 1029 hPa 0,0 l/m 0,0 km/h (0 Bft) 0 min 0 min
28.11.2018 22:06 23,6 C -4,0 C -1,5 C 89 % 1 % 1029 hPa 0,0 l/m 0,0 km/h (0 Bft) 0 min 0 min
28.11.2018 22:09 23,6 C -4,0 C -1,7 C 89 % 1 % 1029 hPa 0,0 l/m 0,0 km/h (0 Bft) 0 min 0 min
28.11.2018 22:12 23,6 C -4,0 C -1,5 C 89 % 1 % 1029 hPa 0,0 l/m 0,0 km/h (0 Bft) 0 min 0 min
28.11.2018 22:15 23,6 C -4,0 C -1,3 C 89 % 1 % 1029 hPa 0,0 l/m 0,0 km/h (0 Bft) 0 min 0 min
28.11.2018 22:18 23,6 C -4,0 C -1,0 C 89 % 1 % 1029 hPa 0,0 l/m 0,0 km/h (0 Bft) 0 min 0 min
28.11.2018 22:21 23,6 C -4,0 C -1,0 C 89 % 1 % 1029 hPa 0,0 l/m 0,0 km/h (0 Bft) 0 min 0 min
28.11.2018 22:24 23,6 C -4,0 C -1,0 C 89 % 1 % 1029 hPa 0,0 l/m 0,0 km/h (0 Bft) 0 min 0 min
28.11.2018 22:27 23,6 C -4,0 C -1,1 C 89 % 1 % 1029 hPa 0,0 l/m 0,0 km/h (0 Bft) 0 min 0 min
28.11.2018 22:30 23,6 C -4,0 C -1,2 C 89 % 1 % 1029 hPa 0,0 l/m 0,0 km/h (0 Bft) 0 min 0 min
28.11.2018 22:33 23,6 C -4,0 C -1,4 C 89 % 1 % 1029 hPa 0,0 l/m 0,0 km/h (0 Bft) 0 min 0 min
28.11.2018 22:36 23,6 C -4,1 C -1,0 C 89 % 1 % 1029 hPa 0,0 l/m 0,0 km/h (0 Bft) 0 min 0 min
28.11.2018 22:39 23,6 C -4,1 C -1,2 C 89 % 1 % 1029 hPa 0,0 l/m 0,0 km/h (0 Bft) 0 min 0 min
28.11.2018 22:42 23,5 C -4,1 C -1,2 C 89 % 1 % 1029 hPa 0,0 l/m 0,0 km/h (0 Bft) 0 min 0 min
28.11.2018 22:45 23,5 C -4,1 C -1,2 C 89 % 1 % 1029 hPa 0,0 l/m 0,0 km/h (0 Bft) 0 min 0 min
28.11.2018 22:48 23,5 C -4,2 C -1,0 C 89 % 1 % 1029 hPa 0,0 l/m 0,0 km/h (0 Bft) 0 min 0 min
28.11.2018 22:51 23,5 C -4,2 C -1,0 C 89 % 1 % 1029 hPa 0,0 l/m 0,0 km/h (0 Bft) 0 min 0 min
28.11.2018 22:54 23,5 C -4,2 C -1,3 C 89 % 1 % 1029 hPa 0,0 l/m 0,0 km/h (0 Bft) 0 min 0 min
28.11.2018 22:57 23,4 C -4,2 C -1,2 C 89 % 1 % 1029 hPa 0,0 l/m 0,0 km/h (0 Bft) 0 min 0 min
28.11.2018 23:00 23,4 C -4,3 C -1,2 C 89 % 1 % 1029 hPa 0,0 l/m 0,0 km/h (0 Bft) 0 min 0 min
28.11.2018 23:03 23,4 C -4,3 C -1,5 C 89 % 1 % 1029 hPa 0,0 l/m 0,0 km/h (0 Bft) 0 min 0 min
28.11.2018 23:06 23,5 C -4,3 C -1,2 C 89 % 1 % 1029 hPa 0,0 l/m 0,0 km/h (0 Bft) 0 min 0 min
28.11.2018 23:09 23,5 C -4,3 C -1,4 C 89 % 1 % 1029 hPa 0,0 l/m 0,0 km/h (0 Bft) 0 min 0 min
28.11.2018 23:12 23,4 C -4,3 C -1,7 C 89 % 1 % 1029 hPa 0,0 l/m 0,0 km/h (0 Bft) 0 min 0 min
28.11.2018 23:15 23,4 C -4,5 C -1,4 C 89 % 1 % 1029 hPa 0,0 l/m 0,0 km/h (0 Bft) 0 min 0 min
28.11.2018 23:18 23,4 C -4,5 C -1,4 C 89 % 1 % 1029 hPa 0,0 l/m 0,0 km/h (0 Bft) 0 min 0 min
28.11.2018 23:21 23,4 C -4,6 C -1,5 C 89 % 1 % 1029 hPa 0,0 l/m 0,0 km/h (0 Bft) 0 min 0 min
28.11.2018 23:24 23,4 C -4,6 C -1,5 C 89 % 1 % 1029 hPa 0,0 l/m 0,0 km/h (0 Bft) 0 min 0 min
28.11.2018 23:27 23,4 C -4,6 C -1,3 C 89 % 1 % 1029 hPa 0,0 l/m 0,0 km/h (0 Bft) 0 min 0 min
28.11.2018 23:30 23,4 C -4,6 C -1,5 C 89 % 1 % 1029 hPa 0,0 l/m 0,1 km/h (0 Bft) 0 min 0 min
28.11.2018 23:33 23,2 C -4,6 C -1,5 C 89 % 1 % 1029 hPa 0,0 l/m 0,0 km/h (0 Bft) 0 min 0 min
28.11.2018 23:36 23,1 C -4,6 C -1,3 C 89 % 1 % 1029 hPa 0,0 l/m 0,0 km/h (0 Bft) 0 min 0 min
28.11.2018 23:39 23,1 C -4,6 C -1,4 C 89 % 1 % 1029 hPa 0,0 l/m 0,0 km/h (0 Bft) 0 min 0 min
28.11.2018 23:42 23,1 C -4,6 C -1,4 C 89 % 1 % 1029 hPa 0,0 l/m 0,0 km/h (0 Bft) 0 min 0 min
28.11.2018 23:45 22,9 C -4,7 C -1,3 C 89 % 1 % 1029 hPa 0,0 l/m 0,0 km/h (0 Bft) 0 min 0 min
28.11.2018 23:48 22,7 C -4,7 C -1,7 C 89 % 1 % 1029 hPa 0,0 l/m 0,0 km/h (0 Bft) 0 min 0 min
28.11.2018 23:51 22,7 C -4,7 C -1,6 C 89 % 1 % 1029 hPa 0,0 l/m 0,0 km/h (0 Bft) 0 min 0 min
28.11.2018 23:54 22,6 C -4,6 C -1,6 C 89 % 1 % 1029 hPa 0,0 l/m 0,0 km/h (0 Bft) 0 min 0 min
28.11.2018 23:57 22,7 C -4,6 C -1,4 C 89 % 1 % 1029 hPa 0,0 l/m 0,0 km/h (0 Bft) 0 min 0 min
_ Min-Zeit 11:33 23:45 22:09 12:12 - 00:00 - 00:00 - -
Minimum _ 20,0 C -4,7 C -1,7 C 77 % - 1025 hPa - 0,0 km/h (0 Bft) - -
_ Max-Zeit 21:36 11:03 13:39 00:00 11:00 10:54 00:00 11:18 07:45 00:00
Maximum _ 23,6 C 1,9 C 2,3 C 90 % 74 % 1029 hPa 0,0 l/m 17,5 km/h
S-SO (3 Bft)
3 min 0 min
Durchschnitt _ 22,3 C -1,2 C 0,5 C 87 % #48 min. 1028 hPa #0,0 l/m 3,2 km/h (1 Bft) #48 min. #0 min.